| time (UTC) | temp C | wind direction | speed KPH | gust KPH | rain 1hr cm | rain 24hr cm | rain mn cm | humidity % | barometer mb |
| 20260504081505 | 1 | 267 | 0.0 | 0.0 | 0.00 | 0.00 | 0.00 | 92 | 1012.9 |
| 20260504044542 | 3 | 267 | 0.0 | 0.0 | 0.00 | 0.00 | 0.00 | 86 | 1012.3 |
| 20260504043042 | 3 | 267 | 0.0 | 0.0 | 0.00 | 0.00 | 0.00 | 85 | 1012.1 |
| 20260504041536 | 3 | 267 | 0.0 | 0.0 | 0.00 | 0.00 | 0.00 | 84 | 1012.0 |
| 20260504040033 | 3 | 267 | 0.0 | 0.0 | 0.00 | 0.00 | 0.00 | 82 | 1011.9 |
| 20260504034531 | 4 | 267 | 0.0 | 0.0 | 0.00 | 0.00 | 0.00 | 81 | 1011.9 |
| 20260504033029 | 4 | 267 | 0.0 | 0.0 | 0.00 | 0.00 | 0.00 | 80 | 1011.9 |
| 20260504031526 | 5 | 267 | 0.0 | 0.0 | 0.00 | 0.00 | 0.00 | 78 | 1012.0 |
| 20260504030027 | 5 | 267 | 0.0 | 0.0 | 0.00 | 0.00 | 0.00 | 76 | 1011.9 |
| 20260504024623 | 6 | 267 | 0.0 | 0.0 | 0.00 | 0.00 | 0.00 | 74 | 1012.0 |
| 20260504023022 | 6 | 267 | 0.0 | 0.0 | 0.00 | 0.00 | 0.00 | 71 | 1011.9 |
| 20260504021524 | 7 | 267 | 0.0 | 0.0 | 0.00 | 0.00 | 0.00 | 67 | 1012.0 |
| 20260504020019 | 7 | 267 | 0.0 | 0.0 | 0.00 | 0.00 | 0.00 | 64 | 1012.0 |
| 20260504014519 | 8 | 267 | 0.0 | 0.0 | 0.00 | 0.00 | 0.00 | 61 | 1011.7 |
| 20260504013031 | 9 | 267 | 0.0 | 0.0 | 0.00 | 0.00 | 0.00 | 57 | 1011.6 |
| 20260504011518 | 10 | 267 | 0.0 | 0.0 | 0.00 | 0.00 | 0.00 | 52 | 1011.4 |
| 20260504010017 | 11 | 267 | 0.0 | 1.6 | 0.00 | 0.00 | 0.00 | 49 | 1011.2 |
| 20260504004515 | 12 | 267 | 0.0 | 0.0 | 0.00 | 0.00 | 0.00 | 42 | 1011.0 |
| 20260504003033 | 12 | 267 | 0.0 | 11.3 | 0.00 | 0.00 | 0.00 | 39 | 1010.9 |
| 20260504001515 | 12 | 311 | 1.6 | 9.7 | 0.00 | 0.00 | 0.00 | 38 | 1010.6 |
| 20260504000014 | 13 | 329 | 3.2 | 9.7 | 0.00 | 0.00 | 0.00 | 37 | 1010.4 |
| 20260503234514 | 13 | 262 | 0.0 | 6.4 | 0.00 | 0.00 | 0.00 | 38 | 1010.3 |
| 20260503233014 | 13 | 270 | 0.0 | 9.7 | 0.00 | 0.00 | 0.00 | 35 | 1010.2 |
| 20260503231514 | 13 | 268 | 0.0 | 4.8 | 0.00 | 0.00 | 0.00 | 34 | 1010.0 |
| 20260503230013 | 13 | 305 | 3.2 | 16.1 | 0.00 | 0.00 | 0.00 | 33 | 1009.8 |
| 20260503224524 | 14 | 293 | 6.4 | 14.5 | 0.00 | 0.00 | 0.00 | 32 | 1009.9 |
| 20260503223011 | 14 | 270 | 3.2 | 9.7 | 0.00 | 0.00 | 0.00 | 31 | 1009.6 |
| 20260503221510 | 14 | 312 | 4.8 | 19.3 | 0.00 | 0.00 | 0.00 | 31 | 1009.6 |
| 20260503220017 | 14 | 296 | 4.8 | 22.5 | 0.00 | 0.00 | 0.00 | 30 | 1009.6 |
| 20260503214511 | 14 | 308 | 6.4 | 17.7 | 0.00 | 0.00 | 0.00 | 30 | 1009.6 |
| 20260503213011 | 14 | 6 | 1.6 | 14.5 | 0.00 | 0.00 | 0.00 | 30 | 1009.4 |
| 20260503211508 | 14 | 295 | 6.4 | 14.5 | 0.00 | 0.00 | 0.00 | 29 | 1009.5 |
| 20260503210007 | 13 | 253 | 6.4 | 32.2 | 0.00 | 0.00 | 0.00 | 30 | 1009.5 |
| 20260503204507 | 14 | 276 | 4.8 | 16.1 | 0.00 | 0.00 | 0.00 | 30 | 1009.5 |
| 20260503203005 | 13 | 293 | 3.2 | 20.9 | 0.00 | 0.00 | 0.00 | 31 | 1009.5 |
| 20260503201504 | 14 | 303 | 6.4 | 20.9 | 0.00 | 0.00 | 0.00 | 31 | 1009.6 |
| 20260503200004 | 14 | 344 | 6.4 | 20.9 | 0.00 | 0.00 | 0.00 | 31 | 1009.9 |
| 20260503194603 | 13 | 339 | 4.8 | 19.3 | 0.00 | 0.00 | 0.00 | 32 | 1009.7 |
| 20260503193057 | 13 | 288 | 6.4 | 17.7 | 0.00 | 0.00 | 0.00 | 32 | 1010.2 |
| 20260503191555 | 13 | 2 | 4.8 | 19.3 | 0.00 | 0.00 | 0.00 | 34 | 1010.2 |
| 20260503190055 | 13 | 245 | 11.3 | 24.1 | 0.00 | 0.00 | 0.00 | 35 | 1010.3 |
| 20260503184605 | 12 | 307 | 6.4 | 20.9 | 0.00 | 0.00 | 0.00 | 34 | 1010.3 |
| 20260503183052 | 12 | 339 | 9.7 | 22.5 | 0.00 | 0.00 | 0.00 | 36 | 1010.4 |
| 20260503181554 | 12 | 242 | 9.7 | 22.5 | 0.00 | 0.00 | 0.00 | 36 | 1010.7 |
| 20260503180047 | 12 | 262 | 6.4 | 22.5 | 0.00 | 0.00 | 0.00 | 37 | 1010.7 |
| 20260503174543 | 11 | 313 | 8.0 | 27.4 | 0.00 | 0.00 | 0.00 | 41 | 1010.6 |
| 20260503173041 | 11 | 10 | 3.2 | 19.3 | 0.00 | 0.00 | 0.00 | 41 | 1010.9 |
| 20260503171602 | 10 | 285 | 4.8 | 22.5 | 0.00 | 0.00 | 0.00 | 46 | 1011.2 |